{"data":{"norad_id":60243,"epoch":"2026-09-19T11:48:36.446400Z","epoch_age_seconds":101381,"freshness":"FRESH","line1":"1 60243U 24128J   26262.49208850  .00003780  00000+0  22538-3 0  9996","line2":"2 60243  61.9849 234.4591 0028027 146.6956 213.5911 15.12751491120683","mean_motion":15.12751491,"eccentricity":0.0028027,"inclination_deg":61.9849,"raan_deg":234.4591,"arg_perigee_deg":146.6956,"mean_anomaly_deg":213.5911,"bstar":0.00022538,"rev_number":12068,"period_min":95.190783718752,"perigee_km":508.4579880043,"apogee_km":547.16860178731,"semimajor_km":6905.9502948958,"source":"CELESTRAK","updated_at":"2026-09-20T09:00:48.039651Z"}}